Zanzibar, Tanzania

10:33 AM EAT on January 21, 2018 (GMT +0300)
Zanzibar

Weather History for 63870 - March, 2014

Change the Weather History Date:

Saturday, March 1, 2014

  Actual Average Record
Temperature  
Mean Temperature 82 °F -  
Max Temperature 89 °F 83 °F - ()
Min Temperature 76 °F 76 °F - ()
Cooling Degree Days 18    
Growing Degree Days 32 (Base 50)    
Moisture  
Dew Point 75 °F    
Average Humidity 82    
Maximum Humidity 96    
Minimum Humidity 19    
Precipitation  
Precipitation 0.04 in 0.21 in - ()
Sea Level Pressure  
Sea Level Pressure 29.87 in    
Wind  
Wind Speed 2 mph ()    
Max Wind Speed 9 mph    
Max Gust Speed -    
Visibility 9.2 miles    
Events Rain , Thunderstorm    
T = Trace of Precipitation, MM = Missing Value Source: Averaged Metar Reports

Daily Weather History Graph

Daily Weather History Graph

Search for Another Location

Airport or City:

Trip Planner

Search our weather history database for the weather conditions in past years. The results will help you decide how hot, cold, wet, or windy it might be!

Date:

Astronomy

Mar. 01, 2014 Rise Set
Actual Time 6:28 AM EAT 6:42 PM EAT
Civil Twilight 6:07 AM EAT 7:03 PM EAT
Nautical Twilight 5:43 AM EAT 7:27 PM EAT
Astronomical Twilight 5:18 AM EAT 7:51 PM EAT
Moon 6:17 AM EAT (3/1) 6:46 PM EAT (3/1)
Length of Visible Light 12h 55m
Length of Day
12h 13m
New Moon, 0% of the Moon is Illuminated
Mar 1
New Moon
Mar 8
First Quarter
Mar 16
Full
Mar 24
Last Quarter
Mar 30
New

Hourly Weather History & Observations

Time (EAT) Temp. Heat Index Dew Point Humidity Pressure Visibility Wind Dir Wind Speed Gust Speed Precip Events Conditions
12:00 AM 78 °F - 75 °F 88% 29.87 in 19 mi Calm Calm - -   Scattered Clouds
12:00 AM 78.8 °F - 75.2 °F 89% 29.86 in 6.2 mi Calm Calm - N/A   Partly Cloudy
1:00 AM 78.8 °F - 75.2 °F 89% 29.86 in 6.2 mi Calm Calm - N/A   Partly Cloudy
2:00 AM 78.8 °F - 75.2 °F 89% 29.83 in 6.2 mi Calm Calm - N/A   Partly Cloudy
3:00 AM 78 °F - 76 °F 90% 29.84 in 19 mi Calm Calm - -   Scattered Clouds
3:00 AM 77.0 °F - 75.2 °F 94% 29.83 in 6.2 mi Calm Calm - N/A   Partly Cloudy
4:00 AM 77.0 °F - 75.2 °F 94% 29.83 in 6.2 mi Calm Calm - N/A   Partly Cloudy
5:00 AM 77.0 °F - 75.2 °F 94% 29.86 in 6.2 mi Calm Calm - N/A   Mostly Cloudy
6:00 AM 77 °F - 76 °F 96% 29.88 in 16 mi Calm Calm - -   Scattered Clouds
6:00 AM 77.0 °F - 75.2 °F 94% 29.86 in 6.2 mi Calm Calm - N/A   Mostly Cloudy
7:00 AM 77.0 °F - 75.2 °F 94% 29.89 in 6.2 mi Calm Calm - N/A   Mostly Cloudy
8:00 AM 80.6 °F 86.2 °F 75.2 °F 84% 29.89 in 6.2 mi Calm Calm - N/A   Mostly Cloudy
9:00 AM 83 °F - 77 °F 77% 29.94 in 19 mi Calm Calm - -   Scattered Clouds
9:00 AM 84.2 °F 94.1 °F 77.0 °F 79% 29.92 in 6.2 mi Calm Calm - N/A   Mostly Cloudy
10:00 AM 82.4 °F 90.9 °F 77.0 °F 84% 29.92 in 6.2 mi SW 5.8 mph - N/A   Mostly Cloudy
11:00 AM 86.0 °F 96.9 °F 77.0 °F 74% 29.92 in 6.2 mi SSW 9.2 mph - N/A   Mostly Cloudy
12:00 PM 88 °F - 79 °F 69% 29.91 in 19 mi West 8.1 mph - -   Scattered Clouds
12:00 PM 87.8 °F 102.5 °F 78.8 °F 75% 29.89 in 6.2 mi West 8.1 mph - N/A   Mostly Cloudy
1:00 PM 84.2 °F 94.1 °F 77.0 °F 79% 29.89 in 5.0 mi Calm Calm - N/A Rain , Thunderstorm Light Thunderstorms and Rain
2:00 PM 78.8 °F - 75.2 °F 89% 29.86 in 6.2 mi Calm Calm - N/A   Mostly Cloudy
3:00 PM 82 °F - 78 °F 85% 29.84 in 16 mi Calm Calm - -   Partly Cloudy
3:00 PM 82.4 °F 92.4 °F 78.8 °F 89% 29.83 in 6.2 mi Calm Calm - N/A   Scattered Clouds
4:00 PM 86.0 °F 96.9 °F 77.0 °F 74% 29.83 in 6.2 mi Calm Calm - N/A   Scattered Clouds
5:00 PM 86.0 °F 95.1 °F 75.2 °F 70% 29.80 in 6.2 mi SSE 9.2 mph - N/A   Partly Cloudy
6:00 PM 85 °F - 76 °F 68% 29.83 in 19 mi SE 9.2 mph - -   Scattered Clouds
6:00 PM 84.2 °F 94.1 °F 77.0 °F 79% 29.83 in 6.2 mi SE 9.2 mph - N/A   Partly Cloudy
7:00 PM 84.2 °F 94.1 °F 77.0 °F 79% 29.83 in 6.2 mi East 5.8 mph - N/A   Partly Cloudy
8:00 PM 82.4 °F - 35.6 °F 19% 29.83 in 6.2 mi ESE 6.9 mph - N/A   Partly Cloudy
9:00 PM 81 °F - 77 °F 83% 29.87 in 19 mi East 6.9 mph - -   Scattered Clouds
9:00 PM 80.6 °F 87.1 °F 77.0 °F 89% 29.86 in 6.2 mi East 6.9 mph - N/A   Partly Cloudy
10:00 PM 80.6 °F 87.1 °F 77.0 °F 89% 29.89 in 6.2 mi East 2.3 mph - N/A   Partly Cloudy
11:00 PM 78.8 °F - 77.0 °F 94% 29.89 in 6.2 mi Calm Calm - N/A   Partly Cloudy